Home   Weather   Palestine   Past weeks

Flag for USA Past Weather in Palestine, Texas, USA — Yesterday and Last 2 Weeks

Now
43 °F

Low clouds.


Feels Like: 36 °F
Forecast: 32 / 47 °F
Wind: 12 mph from North

Location: Palestine Municipal Airport

Current Time: Dec 8, 2016 at 4:10:08 am

Latest Report: Dec 8, 2016 at 3:55 am


Visibility: 10 mi

Pressure: 30.38 "Hg

Humidity: 95%

Dew Point: 42 °F

Location of PalestineLocation

Past Weather in Palestine — Graph

°F

Palestine Temperature Yesterday

Maximum temperature yesterday: 55 °F (at 3:55 pm)
Minimum temperature yesterday: 48 °F (at 3:55 am)
Average temperature yesterday: 51 °F

High & Low Weather Summary for the Past Weeks

 TemperatureHumidityPressure
High77 °F (Nov 28, 3:35 pm)100% (Nov 24, 2:15 am)30.43 "Hg (Nov 24, 2:15 am)
Low32 °F (Dec 1, 5:15 am)22% (Dec 1, 12:35 pm)29.49 "Hg (Nov 28, 2:15 pm)
Average54 °F80%30.03 "Hg
* Reported Nov 23 2:15 am — Dec 8 2:55 am, Palestine, Weather by CustomWeather, © 2016

Note: Actual official high and low records may vary slightly from our data, if they occured in-between our weather recording intervals... More about our weather records

Advertising

Palestine Weather History for the Previous 24 Hours

Scroll right to see more
 ConditionsComfort  
Time TempWeatherWind HumidityBarometerVisibility
2:55 am
Thu, Dec 8
45 °FMostly cloudy.13 mph94%30.35 "Hg7 mi
2:35 am46 °FOvercast.14 mph89%30.34 "Hg10 mi
2:15 am47 °FMostly cloudy.14 mph87%30.34 "Hg10 mi
1:55 am47 °FOvercast.14 mph86%30.33 "Hg10 mi
1:35 am47 °FOvercast.14 mph88%30.31 "Hg10 mi
1:15 am47 °FOvercast.12 mph90%30.30 "Hg10 mi
12:55 am47 °FLow clouds.13 mph94%30.29 "Hg10 mi
12:35 am48 °FMostly cloudy.9 mph93%30.29 "HgN/A
12:15 am48 °FMostly cloudy.12 mph95%30.29 "Hg10 mi
11:55 pm
Wed, Dec 7
48 °FOvercast.12 mph95%30.28 "Hg10 mi
11:35 pm49 °FLow clouds.9 mph96%30.28 "Hg10 mi
11:15 pm49 °FLow clouds.12 mph97%30.27 "Hg7 mi
10:55 pm50 °FMostly cloudy.12 mph97%30.26 "Hg7 mi
10:35 pm50 °FMostly cloudy.10 mph97%30.25 "Hg7 mi
10:15 pm50 °FLow clouds.8 mph99%30.25 "Hg7 mi
9:55 pm50 °FLow clouds.8 mph100%30.23 "Hg7 mi
9:35 pm50 °FFog.7 mph99%30.23 "Hg4 mi
9:15 pm51 °FFog.5 mph99%30.23 "Hg2 mi
8:35 pm51 °FFog.5 mph97%30.21 "Hg2 mi
8:15 pm52 °FFog.7 mph92%30.20 "Hg5 mi
7:55 pm53 °FOvercast.No wind88%30.19 "Hg10 mi
7:35 pm53 °FOvercast.No wind88%30.18 "Hg10 mi
7:15 pm53 °FOvercast.No wind88%30.17 "Hg10 mi
6:55 pm53 °FMostly cloudy.No wind88%30.16 "Hg10 mi
6:35 pm53 °FOvercast.No wind89%30.15 "Hg10 mi
6:15 pm53 °FOvercast.No wind87%30.14 "Hg10 mi
5:55 pm53 °FOvercast.No wind84%30.13 "Hg10 mi
5:35 pm54 °FOvercast.No wind82%30.11 "Hg10 mi
5:15 pm54 °FMostly cloudy.No wind81%30.11 "Hg10 mi
4:55 pm54 °FMore clouds than sun.No wind81%30.10 "Hg10 mi
4:35 pm54 °FMore clouds than sun.5 mph79%30.09 "Hg10 mi
4:15 pm54 °FBroken clouds.6 mph78%30.09 "Hg10 mi
3:55 pm55 °FPartly sunny.9 mph77%30.07 "Hg10 mi
3:35 pm54 °FBroken clouds.No wind78%30.08 "Hg10 mi
3:15 pm54 °FPartly sunny.3 mph78%30.08 "Hg10 mi
2:55 pm54 °FScattered clouds.3 mph79%30.08 "Hg10 mi
2:35 pm53 °FPartly sunny.No wind80%30.08 "Hg10 mi
2:15 pm53 °FOvercast.No wind81%30.09 "HgN/A
1:55 pm53 °FOvercast.3 mph81%30.09 "HgN/A
1:35 pm53 °FOvercast.3 mph82%30.09 "HgN/A
1:15 pm53 °FOvercast.5 mph84%30.10 "HgN/A
12:55 pm52 °FOvercast.3 mph86%30.10 "HgN/A
12:35 pm52 °FOvercast.6 mph87%30.10 "HgN/A
12:15 pm52 °FOvercast.3 mph88%30.11 "HgN/A
11:55 am52 °FOvercast.3 mph88%30.12 "HgN/A
11:35 am52 °FOvercast.7 mph87%30.13 "HgN/A
11:15 am52 °FOvercast.5 mph86%30.14 "HgN/A
10:55 am52 °FOvercast.3 mph86%30.13 "Hg10 mi
10:35 am52 °FOvercast.3 mph85%30.13 "Hg7 mi
10:15 am51 °FPartly sunny.3 mph88%30.13 "Hg7 mi
9:55 am52 °FPartly sunny.3 mph88%30.13 "Hg7 mi
9:15 am51 °FPartly sunny.5 mph93%30.11 "Hg7 mi
8:15 am49 °FFog.No wind99%30.10 "Hg3 mi
7:55 am48 °FFog.No wind99%30.10 "Hg2 mi
7:15 am48 °FFog.No wind98%30.08 "Hg4 mi
6:55 am48 °FFog.3 mph98%30.08 "Hg4 mi
6:35 am48 °FFog.3 mph98%30.07 "Hg5 mi
6:15 am48 °FFog.No wind97%30.07 "Hg5 mi
5:55 am48 °FLow clouds.No wind97%30.07 "Hg7 mi
5:35 am48 °FLow clouds.No wind97%30.07 "Hg7 mi
5:15 am48 °FMostly cloudy.No wind97%30.07 "Hg7 mi
4:55 am48 °FMostly cloudy.No wind96%30.06 "Hg7 mi
4:35 am48 °FMostly cloudy.No wind96%30.06 "Hg7 mi
4:15 am48 °FMostly cloudy.No wind96%30.06 "Hg7 mi
Weather by CustomWeather, © 2016

See weather overviewHow to use our weather pages